TimeCST,TemperatureF,Dew PointF,Humidity,Sea Level PressureIn,VisibilityMPH,Wind Direction,Wind SpeedMPH,Gust SpeedMPH,PrecipitationIn,Events,Conditions,WindDirDegrees,DateUTC
12:23 AM,42.8,33.8,70,30.05,10.0,NNW,31.1,39.1,N/A,,Mostly Cloudy,340,2013-03-05 06:23:00
12:36 AM,42.8,33.8,70,30.07,10.0,North,33.4,41.4,N/A,Rain,Light Rain,350,2013-03-05 06:36:00
12:58 AM,41.5,36.7,83,30.10,10.0,North,28.8,40.3,N/A,,Mostly Cloudy,350,2013-03-05 06:58:00
1:28 AM,39.2,37.4,93,30.12,8.0,North,28.8,47.2,N/A,,Overcast,350,2013-03-05 07:28:00
1:43 AM,39.2,35.6,87,30.12,10.0,North,27.6,39.1,N/A,Rain,Light Rain,350,2013-03-05 07:43:00
1:58 AM,38.3,35.4,89,30.14,10.0,North,21.9,33.4,N/A,Rain,Light Rain,360,2013-03-05 07:58:00
1:59 AM,39.2,35.6,87,30.12,10.0,North,19.6,33.4,N/A,,Scattered Clouds,10,2013-03-05 07:59:00
2:52 AM,39.2,35.6,87,30.13,10.0,NNW,19.6,27.6,N/A,,Light Drizzle,340,2013-03-05 08:52:00
2:58 AM,38.7,34.7,86,30.15,10.0,NNW,23.0,27.6,N/A,,Light Drizzle,340,2013-03-05 08:58:00
3:14 AM,39.2,33.8,81,30.14,10.0,NNW,17.3,-,N/A,,Scattered Clouds,340,2013-03-05 09:14:00
3:58 AM,39.7,33.8,79,30.16,10.0,NNW,18.4,25.3,N/A,,Scattered Clouds,330,2013-03-05 09:58:00
4:58 AM,37.8,27.5,67,30.22,10.0,NNW,29.9,41.4,N/A,,Clear,330,2013-03-05 10:58:00
5:58 AM,35.6,21.4,56,30.26,10.0,NNW,20.7,-,N/A,,Clear,330,2013-03-05 11:58:00
6:58 AM,33.8,19.6,56,30.31,10.0,NW,17.3,-,N/A,,Clear,320,2013-03-05 12:58:00
7:58 AM,33.6,19.6,56,30.35,10.0,NW,16.1,24.2,N/A,,Clear,320,2013-03-05 13:58:00
8:58 AM,36.0,19.0,50,30.38,10.0,NNW,23.0,31.1,N/A,,Clear,330,2013-03-05 14:58:00
9:58 AM,38.3,16.5,41,30.38,10.0,NNW,20.7,31.1,N/A,,Clear,330,2013-03-05 15:58:00
10:58 AM,41.5,16.2,36,30.37,10.0,NW,28.8,38.0,N/A,,Clear,310,2013-03-05 16:58:00
11:58 AM,43.3,16.2,33,30.39,10.0,NW,20.7,31.1,N/A,,Clear,310,2013-03-05 17:58:00
12:58 PM,44.8,18.5,35,30.38,10.0,NW,19.6,28.8,N/A,,Clear,310,2013-03-05 18:58:00
1:58 PM,46.4,18.3,33,30.35,10.0,NW,21.9,27.6,N/A,,Clear,320,2013-03-05 19:58:00
2:58 PM,48.4,19.0,31,30.34,10.0,NNW,21.9,-,N/A,,Clear,330,2013-03-05 20:58:00
3:46 PM,48.2,19.4,32,30.30,10.0,WNW,16.1,23.0,N/A,,Clear,290,2013-03-05 21:46:00
3:58 PM,48.6,19.0,31,30.34,10.0,NNW,17.3,26.5,N/A,,Clear,330,2013-03-05 21:58:00
4:58 PM,48.2,19.2,32,30.35,10.0,NW,16.1,-,N/A,,Clear,320,2013-03-05 22:58:00
5:58 PM,45.7,20.5,37,30.35,10.0,NW,17.3,-,N/A,,Clear,320,2013-03-05 23:58:00
6:58 PM,42.4,21.6,44,30.38,10.0,NW,9.2,-,N/A,,Clear,310,2013-03-06 00:58:00
7:58 PM,40.5,21.9,48,30.39,10.0,NW,10.4,-,N/A,,Clear,310,2013-03-06 01:58:00
8:58 PM,39.0,22.6,52,30.41,10.0,NW,10.4,-,N/A,,Clear,320,2013-03-06 02:58:00
9:58 PM,36.7,22.5,56,30.41,10.0,North,9.2,-,N/A,,Clear,350,2013-03-06 03:58:00
10:58 PM,36.5,22.3,56,30.43,10.0,NNW,8.1,-,N/A,,Clear,330,2013-03-06 04:58:00
11:58 PM,32.7,21.2,63,30.43,10.0,NNW,8.1,-,N/A,,Clear,340,2013-03-06 05:58:00